User: anonymous   Login
Location: Unspecified
(0.0000°N, 0.0000°E)
Time: 12:52:33
(UTC+00:00)
Language:

CORIOLIS - Orbit

View from above orbital plane
View from above orbital plane
View from above satellite
View from above satellite

Ground track
Ground track

The orbit data is extracted from the following two-line orbital elements,

1 27640U 03001A   17229.93372373 +.00000016 +00000-0 +28717-4 0  9997
2 27640 098.7431 239.3211 0015005 127.3018 291.5678 14.18950675756728
Epoch (UTC): 17 August 2017 22:24:33
Eccentricity: 0.0015005
inclination: 98.7431°
perigee height: 818 km
apogee height: 840 km
right ascension of ascending node: 239.3211°
argument of perigee: 127.3018°
revolutions per day: 14.18950675
mean anomaly at epoch: 291.5678°
orbit number at epoch: 75672

The dashed part of the orbit path shows where the satellite is in the earth's shadow,  

DLR